AIC113 VOTV-VOCI

Flight info

Callsign AIC113
Flight time 0h 25m
Altitude 13000
Route NUKET CIA
Aircraft A35K/H-SDE2E3GHIJ3J4J5LM1ORWXY/LB1D1

Departure

Time 2026-04-17 05:02
Airport Thiruvananthapuram International Airport (VOTV)

Arrival

Time 2026-04-17 05:27
Airport Cochin International Airport (VOCI)
Time Latitude Longitude Altitude Speed Heading
2026-04-17 04:56 8.48169 76.92168 39 ft 0 kts 355°
2026-04-17 04:57 8.48198 76.92165 39 ft 5 kts 355°
2026-04-17 04:57 8.48228 76.92155 38 ft 10 kts 343°
2026-04-17 04:57 8.48348 76.92093 38 ft 28 kts 317°
2026-04-17 04:58 8.48499 76.91944 38 ft 26 kts 303°
2026-04-17 04:58 8.48490 76.91791 39 ft 16 kts 226°
2026-04-17 04:58 8.48437 76.91788 39 ft 7 kts 145°
2026-04-17 04:58 8.48390 76.91824 39 ft 10 kts 142°
2026-04-17 04:59 8.48325 76.91874 39 ft 13 kts 142°
2026-04-17 04:59 8.48244 76.91937 39 ft 16 kts 143°
2026-04-17 04:59 8.48147 76.92011 39 ft 18 kts 143°
2026-04-17 04:59 8.48061 76.92077 40 ft 14 kts 142°
2026-04-17 05:00 8.47991 76.92131 41 ft 11 kts 142°
2026-04-17 05:00 8.47943 76.92154 40 ft 4 kts 162°
2026-04-17 05:00 8.47927 76.92167 40 ft 2 kts 136°
2026-04-17 05:00 8.47914 76.92188 40 ft 13 kts 115°
2026-04-17 05:01 8.47926 76.92271 40 ft 0 kts 39°
2026-04-17 05:01 8.47934 76.92270 40 ft 2 kts 358°
2026-04-17 05:01 8.47967 76.92243 40 ft 28 kts 320°
2026-04-17 05:01 8.48303 76.91909 39 ft 105 kts 315°
2026-04-17 05:02 8.48978 76.91243 179 ft 158 kts 314°
2026-04-17 05:02 8.50055 76.90837 756 ft 180 kts
2026-04-17 05:02 8.51438 76.90792 1398 ft 218 kts 353°
2026-04-17 05:02 8.53063 76.90479 2351 ft 259 kts 346°
2026-04-17 05:03 8.54856 76.89947 3785 ft 272 kts 342°
2026-04-17 05:03 8.56644 76.89328 5484 ft 273 kts 343°
2026-04-17 05:03 8.58442 76.88679 6992 ft 276 kts 344°
2026-04-17 05:03 8.60274 76.88027 8354 ft 281 kts 345°
2026-04-17 05:04 8.62143 76.87384 9660 ft 287 kts 346°
2026-04-17 05:04 8.64077 76.86740 10635 ft 302 kts 346°
2026-04-17 05:04 8.66176 76.86060 11157 ft 329 kts 346°
2026-04-17 05:04 8.68412 76.85340 11924 ft 342 kts 345°
2026-04-17 05:05 8.70703 76.84596 12857 ft 351 kts 345°
2026-04-17 05:05 8.73062 76.83826 13804 ft 358 kts 345°
2026-04-17 05:05 8.75451 76.83044 14652 ft 365 kts 345°
2026-04-17 05:05 8.77892 76.82243 15517 ft 371 kts 345°
2026-04-17 05:06 8.80390 76.81425 16287 ft 383 kts 345°
2026-04-17 05:06 8.82947 76.80590 16727 ft 402 kts 345°
2026-04-17 05:06 8.85685 76.79700 16864 ft 426 kts 345°
2026-04-17 05:06 8.88593 76.78755 16889 ft 449 kts 345°
2026-04-17 05:07 8.91526 76.77795 16904 ft 434 kts 344°
2026-04-17 05:07 8.94387 76.76854 16901 ft 435 kts 344°
2026-04-17 05:07 8.97291 76.75900 16880 ft 440 kts 344°
2026-04-17 05:07 9.00199 76.74947 16900 ft 441 kts 345°
2026-04-17 05:08 9.03122 76.73990 16896 ft 441 kts 345°
2026-04-17 05:08 9.06047 76.73034 16895 ft 441 kts 345°
2026-04-17 05:08 9.08960 76.72080 16894 ft 441 kts 345°
2026-04-17 05:08 9.11885 76.71122 16894 ft 441 kts 345°
2026-04-17 05:09 9.14809 76.70165 16894 ft 441 kts 345°
2026-04-17 05:09 9.17727 76.69210 16896 ft 441 kts 345°
2026-04-17 05:09 9.20648 76.68254 16894 ft 441 kts 345°
2026-04-17 05:09 9.23567 76.67297 16895 ft 441 kts 345°
2026-04-17 05:10 9.26478 76.66344 16898 ft 441 kts 345°
2026-04-17 05:10 9.29374 76.65437 16895 ft 440 kts 348°
2026-04-17 05:10 9.32390 76.64904 16841 ft 428 kts 356°
2026-04-17 05:10 9.35271 76.64659 16606 ft 413 kts 359°
2026-04-17 05:11 9.38090 76.64479 16356 ft 400 kts 359°
2026-04-17 05:11 9.40820 76.64320 16125 ft 387 kts 360°
2026-04-17 05:11 9.43469 76.64173 15907 ft 375 kts
2026-04-17 05:11 9.46035 76.64034 15702 ft 364 kts
2026-04-17 05:12 9.48525 76.63902 15476 ft 354 kts
2026-04-17 05:12 9.50973 76.63773 15109 ft 350 kts
2026-04-17 05:12 9.53391 76.63648 14707 ft 347 kts
2026-04-17 05:12 9.55794 76.63524 14312 ft 344 kts
2026-04-17 05:13 9.58176 76.63400 13902 ft 341 kts
2026-04-17 05:13 9.60537 76.63277 13463 ft 339 kts
2026-04-17 05:13 9.62861 76.63157 13016 ft 336 kts
2026-04-17 05:13 9.65182 76.63035 12601 ft 332 kts
2026-04-17 05:14 9.67459 76.62915 12403 ft 322 kts
2026-04-17 05:14 9.69659 76.62799 12200 ft 311 kts
2026-04-17 05:14 9.71772 76.62688 11927 ft 305 kts
2026-04-17 05:14 9.73900 76.62577 11581 ft 301 kts
2026-04-17 05:15 9.75985 76.62469 11195 ft 299 kts
2026-04-17 05:15 9.77859 76.62371 10855 ft 297 kts
2026-04-17 05:15 9.79914 76.62265 10494 ft 295 kts
2026-04-17 05:15 9.81870 76.62164 10165 ft 292 kts
2026-04-17 05:16 9.83891 76.62059 9799 ft 289 kts
2026-04-17 05:16 9.85892 76.61954 9364 ft 288 kts
2026-04-17 05:16 9.87890 76.61851 8949 ft 287 kts
2026-04-17 05:16 9.89846 76.61748 8839 ft 273 kts
2026-04-17 05:17 9.91641 76.61647 8814 ft 247 kts
2026-04-17 05:17 9.93308 76.61555 8336 ft 235 kts
2026-04-17 05:17 9.94933 76.61474 7680 ft 234 kts
2026-04-17 05:17 9.96552 76.61395 7061 ft 233 kts
2026-04-17 05:18 9.98162 76.61313 6467 ft 231 kts
2026-04-17 05:18 9.99762 76.61232 5856 ft 229 kts
2026-04-17 05:18 10.01349 76.61153 5264 ft 227 kts 359°
2026-04-17 05:18 10.02917 76.61072 4684 ft 224 kts 358°
2026-04-17 05:19 10.04463 76.60992 4142 ft 221 kts 358°
2026-04-17 05:19 10.05965 76.60912 3789 ft 209 kts 357°
2026-04-17 05:19 10.07360 76.60836 3547 ft 191 kts 357°
2026-04-17 05:19 10.08628 76.60768 3322 ft 175 kts 357°
2026-04-17 05:20 10.09794 76.60709 3117 ft 162 kts 357°
2026-04-17 05:20 10.10869 76.60653 2996 ft 146 kts 356°
2026-04-17 05:20 10.11854 76.60601 3002 ft 141 kts 357°
2026-04-17 05:20 10.12838 76.60550 3000 ft 142 kts 356°
2026-04-17 05:21 10.13819 76.60496 2997 ft 143 kts 356°
2026-04-17 05:21 10.14784 76.60269 2990 ft 144 kts 335°
2026-04-17 05:21 10.15470 76.59557 2999 ft 145 kts 294°
2026-04-17 05:21 10.15722 76.58567 2992 ft 146 kts 277°
2026-04-17 05:22 10.15746 76.57537 2981 ft 146 kts 269°
2026-04-17 05:22 10.15711 76.56506 2824 ft 146 kts 269°
2026-04-17 05:22 10.15671 76.55483 2629 ft 145 kts 269°
2026-04-17 05:22 10.15636 76.54465 2427 ft 144 kts 269°
2026-04-17 05:23 10.15600 76.53456 2240 ft 142 kts 269°
2026-04-17 05:23 10.15564 76.52454 2058 ft 142 kts 268°
2026-04-17 05:23 10.15527 76.51451 1880 ft 142 kts 268°
2026-04-17 05:23 10.15491 76.50452 1698 ft 142 kts 268°
2026-04-17 05:24 10.15455 76.49459 1523 ft 140 kts 268°
2026-04-17 05:24 10.15431 76.48806 1399 ft 140 kts 268°
2026-04-17 05:24 10.15384 76.47502 1180 ft 139 kts 268°
2026-04-17 05:24 10.15360 76.46836 1058 ft 140 kts 267°
2026-04-17 05:25 10.15323 76.45848 883 ft 140 kts 268°
2026-04-17 05:25 10.15287 76.44856 696 ft 141 kts 267°
2026-04-17 05:25 10.15251 76.43865 517 ft 141 kts 267°
2026-04-17 05:25 10.15215 76.42872 313 ft 142 kts 268°
2026-04-17 05:26 10.15173 76.41914 137 ft 143 kts 267°
2026-04-17 05:26 10.15151 76.40944 49 ft 128 kts 269°
2026-04-17 05:26 10.15153 76.40660 57 ft 121 kts 263°
2026-04-17 05:26 10.15156 76.40456 48 ft 116 kts 259°
2026-04-17 05:27 10.15106 76.39782 45 ft 59 kts 271°
2026-04-17 05:27 10.15143 76.39590 44 ft 23 kts 294°
2026-04-17 05:27 10.15220 76.39440 45 ft 25 kts 300°
2026-04-17 05:27 10.15259 76.39274 44 ft 24 kts 267°
2026-04-17 05:28 10.15253 76.39125 44 ft 12 kts 268°
2026-04-17 05:28 10.15264 76.39067 44 ft 3 kts 323°
2026-04-17 05:28 10.15295 76.39059 44 ft 6 kts 353°
2026-04-17 05:28 10.15337 76.39047 44 ft 5 kts 319°
2026-04-17 05:29 10.15377 76.39030 44 ft 8 kts 356°
2026-04-17 05:29 10.15405 76.39029 44 ft 1 kts 357°
2026-04-17 05:29 10.15409 76.39028 44 ft 0 kts 358°